Location: Denia
(38.8500°N, 0.1170°E)
Time: 02:19:29
(UTC+01:00)

Envisat - Pass Details

Date: 21 January 2020
Orbit: 764 x 766 km, 98.1° (Epoch: 25 February)

Event Time Altitude Azimuth Distance (km) Brightness Sun altitude
Rises 19:14:07 0° 179° (S) 3,217 6.4 -13.0°
Reaches altitude 10° 19:16:28 10° 184° (S) 2,295 5.7 -13.4°
Maximum altitude 19:21:23 52° 260° (W) 949 3.9 -14.3°
Drops below altitude 10° 19:26:21 10° 337° (NNW) 2,311 5.6 -15.3°
Sets 19:28:44 0° 342° (NNW) 3,241 6.3 -15.7°
